When you browse on this site, cookies collect data to enhance your experience and personalize the content and advertising you see.
Visit our Privacy Policy to learn more. By continuing to use the site, you agree to this use of cookies and data.
  • In Sweden
  • List of Countries
  • For 7 days
  • Water Temperature
  • Satellite Maps
  • Weather Map
  • Weather Widgets
  • user-avatar
    Login

    Hourly Weather Parzno

    Today, 23 May, Thursday

    Time Temperature Precipitation Wind Pressure Humidity
    00:00 +12°C° 0.1 mm 4 mps 740 mmHg 95%
    01:00 +12°C° 0.1 mm 4 mps 740 mmHg 96%
    02:00 +12°C° 0.1 mm 4 mps 740 mmHg 96%
    03:00 +12°C° 0.1 mm 5 mps 741 mmHg 96%
    04:00 +12°C° 0.1 mm 5 mps 741 mmHg 96%
    05:00 +13°C° 0.1 mm 5 mps 741 mmHg 96%
    06:00 +13°C° 0.1 mm 5 mps 741 mmHg 95%
    07:00 +13°C° 0.1 mm 5 mps 742 mmHg 94%
    08:00 +13°C° 0.1 mm 6 mps 742 mmHg 94%
    09:00 +13°C° 0.1 mm 6 mps 742 mmHg 93%
    10:00 +13°C° 0.1 mm 6 mps 743 mmHg 93%
    11:00 +13°C° 0.1 mm 6 mps 743 mmHg 91%
    12:00 +14°C° 0.1 mm 6 mps 743 mmHg 89%
    13:00 +14°C° 0.1 mm 7 mps 743 mmHg 88%
    14:00 +14°C° 0 mm 6 mps 743 mmHg 87%
    15:00 +13°C° 0 mm 6 mps 743 mmHg 86%
    16:00 +13°C° 0 mm 6 mps 743 mmHg 85%
    17:00 +13°C° 0 mm 5 mps 743 mmHg 85%
    18:00 +13°C° 0 mm 5 mps 743 mmHg 85%
    19:00 +13°C° 0 mm 4 mps 744 mmHg 85%
    20:00 +13°C° 0 mm 4 mps 744 mmHg 84%
    21:00 +12°C° 0 mm 4 mps 744 mmHg 83%
    22:00 +12°C° 0 mm 4 mps 744 mmHg 82%
    23:00 +12°C° 0 mm 4 mps 744 mmHg 81%

    Tomorrow, 24 May, Friday

    Time Temperature Precipitation Wind Pressure Humidity
    00:00 +11°C° 0 mm 3 mps 744 mmHg 80%
    01:00 +11°C° 0 mm 3 mps 744 mmHg 80%
    02:00 +10°C° 0 mm 3 mps 744 mmHg 78%
    03:00 +10°C° 0 mm 3 mps 744 mmHg 76%
    04:00 +10°C° 0 mm 3 mps 744 mmHg 74%
    05:00 +10°C° 0 mm 3 mps 744 mmHg 74%
    06:00 +11°C° 0 mm 3 mps 744 mmHg 74%
    07:00 +12°C° 0 mm 2 mps 745 mmHg 74%
    08:00 +13°C° 0 mm 3 mps 744 mmHg 70%
    09:00 +14°C° 0 mm 3 mps 744 mmHg 65%
    10:00 +17°C° 0 mm 3 mps 744 mmHg 61%
    11:00 +18°C° 0 mm 3 mps 744 mmHg 58%
    12:00 +19°C° 0 mm 3 mps 744 mmHg 56%
    13:00 +20°C° 0 mm 3 mps 744 mmHg 53%
    14:00 +20°C° 0 mm 3 mps 743 mmHg 54%
    15:00 +20°C° 0 mm 3 mps 743 mmHg 55%
    16:00 +20°C° 0 mm 3 mps 742 mmHg 55%
    17:00 +19°C° 0 mm 2 mps 742 mmHg 60%
    18:00 +17°C° 0 mm 2 mps 742 mmHg 65%
    19:00 +16°C° 0 mm 2 mps 742 mmHg 69%
    20:00 +15°C° 0 mm 2 mps 742 mmHg 71%
    21:00 +14°C° 0 mm 1 mps 742 mmHg 73%
    22:00 +13°C° 0 mm 1 mps 743 mmHg 75%
    23:00 +13°C° 0 mm 1 mps 742 mmHg 77%

    Day after tomorrow, 25 May, Saturday

    Time Temperature Precipitation Wind Pressure Humidity
    00:00 +12°C° 0 mm 1 mps 742 mmHg 78%
    01:00 +12°C° 0 mm 1 mps 742 mmHg 79%
    02:00 +11°C° 0 mm 1 mps 742 mmHg 80%
    03:00 +10°C° 0 mm 2 mps 742 mmHg 80%
    04:00 +10°C° 0 mm 2 mps 742 mmHg 81%
    05:00 +12°C° 0 mm 2 mps 742 mmHg 76%
    06:00 +13°C° 0 mm 3 mps 742 mmHg 72%
    07:00 +14°C° 0 mm 3 mps 742 mmHg 67%
    08:00 +17°C° 0.1 mm 4 mps 742 mmHg 66%
    09:00 +18°C° 0.1 mm 4 mps 742 mmHg 65%
    10:00 +20°C° 0.1 mm 4 mps 742 mmHg 64%
    11:00 +20°C° 0.6 mm 5 mps 742 mmHg 64%
    12:00 +20°C° 0.6 mm 5 mps 742 mmHg 65%
    13:00 +21°C° 0.6 mm 6 mps 741 mmHg 65%
    14:00 +20°C° 0 mm 6 mps 741 mmHg 62%
    15:00 +20°C° 0 mm 6 mps 741 mmHg 60%
    16:00 +20°C° 0 mm 6 mps 741 mmHg 57%
    17:00 +19°C° 0 mm 5 mps 741 mmHg 63%
    18:00 +17°C° 0 mm 3 mps 741 mmHg 69%
    19:00 +16°C° 0 mm 2 mps 741 mmHg 74%
    20:00 +15°C° 0 mm 2 mps 741 mmHg 76%
    21:00 +14°C° 0 mm 2 mps 741 mmHg 77%
    22:00 +13°C° 0 mm 2 mps 742 mmHg 79%
    23:00 +13°C° 0 mm 2 mps 742 mmHg 81%

    26 May, Sunday

    Time Temperature Precipitation Wind Pressure Humidity
    00:00 +11°C° 0 mm 3 mps 741 mmHg 83%
    01:00 +11°C° 0 mm 4 mps 741 mmHg 85%
    02:00 +10°C° 0 mm 4 mps 741 mmHg 87%
    03:00 +10°C° 0 mm 4 mps 741 mmHg 90%
    04:00 +8°C° 0 mm 4 mps 741 mmHg 93%
    05:00 +10°C° 0 mm 4 mps 741 mmHg 88%
    06:00 +10°C° 0 mm 5 mps 741 mmHg 83%
    07:00 +10°C° 0 mm 6 mps 741 mmHg 78%
    08:00 +11°C° 0.1 mm 6 mps 741 mmHg 77%
    09:00 +11°C° 0.1 mm 6 mps 741 mmHg 76%
    10:00 +11°C° 0.1 mm 7 mps 741 mmHg 75%
    11:00 +11°C° 0.3 mm 7 mps 741 mmHg 75%
    12:00 +11°C° 0.3 mm 7 mps 741 mmHg 75%
    13:00 +11°C° 0.3 mm 7 mps 741 mmHg 75%
    14:00 +12°C° 0.1 mm 7 mps 741 mmHg 71%
    15:00 +13°C° 0.1 mm 8 mps 741 mmHg 67%
    16:00 +13°C° 0.1 mm 8 mps 741 mmHg 64%
    17:00 +12°C° 0 mm 7 mps 741 mmHg 68%
    18:00 +12°C° 0 mm 5 mps 741 mmHg 72%
    19:00 +11°C° 0 mm 3 mps 741 mmHg 76%
    20:00 +10°C° 0 mm 3 mps 741 mmHg 80%
    21:00 +9°C° 0 mm 2 mps 742 mmHg 84%
    22:00 +9°C° 0 mm 1 mps 742 mmHg 88%
    23:00 +7°C° 0 mm 2 mps 742 mmHg 89%

    27 May, Monday

    Time Temperature Precipitation Wind Pressure Humidity
    00:00 +7°C° 0 mm 2 mps 742 mmHg 89%
    01:00 +7°C° 0 mm 2 mps 742 mmHg 89%
    02:00 +7°C° 0 mm 2 mps 742 mmHg 91%
    03:00 +7°C° 0 mm 2 mps 742 mmHg 93%
    04:00 +7°C° 0 mm 2 mps 742 mmHg 95%
    05:00 +9°C° 0 mm 3 mps 742 mmHg 90%
    06:00 +11°C° 0 mm 3 mps 742 mmHg 85%
    07:00 +12°C° 0 mm 4 mps 742 mmHg 80%
    08:00 +14°C° 0 mm 4 mps 742 mmHg 75%
    09:00 +17°C° 0 mm 4 mps 741 mmHg 70%
    10:00 +19°C° 0 mm 4 mps 741 mmHg 64%
    11:00 +20°C° 0 mm 4 mps 741 mmHg 61%
    12:00 +21°C° 0 mm 4 mps 740 mmHg 58%
    13:00 +22°C° 0 mm 5 mps 740 mmHg 55%
    14:00 +23°C° 0 mm 5 mps 740 mmHg 55%
    15:00 +23°C° 0 mm 5 mps 739 mmHg 55%
    16:00 +23°C° 0 mm 5 mps 739 mmHg 55%
    17:00 +22°C° 0 mm 4 mps 738 mmHg 61%
    18:00 +20°C° 0 mm 4 mps 738 mmHg 67%
    19:00 +19°C° 0 mm 3 mps 738 mmHg 73%
    20:00 +18°C° 0 mm 3 mps 738 mmHg 75%
    21:00 +17°C° 0 mm 3 mps 738 mmHg 76%
    22:00 +17°C° 0 mm 3 mps 738 mmHg 78%
    23:00 +16°C° 0 mm 3 mps 737 mmHg 80%

    28 May, Tuesday

    Time Temperature Precipitation Wind Pressure Humidity
    00:00 +16°C° 0 mm 3 mps 737 mmHg 82%
    01:00 +14°C° 0 mm 3 mps 737 mmHg 84%
    02:00 +15°C° 0 mm 2 mps 736 mmHg 84%
    03:00 +15°C° 0 mm 2 mps 736 mmHg 84%
    04:00 +15°C° 0 mm 2 mps 736 mmHg 84%
    05:00 +16°C° 0 mm 2 mps 736 mmHg 83%
    06:00 +17°C° 0 mm 2 mps 736 mmHg 82%
    07:00 +17°C° 0 mm 2 mps 735 mmHg 81%
    08:00 +17°C° 0.9 mm 2 mps 735 mmHg 85%
    09:00 +16°C° 0.9 mm 2 mps 735 mmHg 89%
    10:00 +16°C° 0.9 mm 2 mps 735 mmHg 93%
    11:00 +16°C° 1 mm 2 mps 735 mmHg 90%
    12:00 +17°C° 1 mm 3 mps 736 mmHg 87%
    13:00 +18°C° 1 mm 3 mps 736 mmHg 84%
    14:00 +17°C° 0.1 mm 3 mps 736 mmHg 85%
    15:00 +17°C° 0.1 mm 4 mps 736 mmHg 86%
    16:00 +17°C° 0.1 mm 4 mps 736 mmHg 87%
    17:00 +15°C° 0 mm 4 mps 736 mmHg 87%
    18:00 +16°C° 0 mm 3 mps 737 mmHg 88%
    19:00 +15°C° 0 mm 2 mps 737 mmHg 88%
    20:00 +15°C° 0 mm 2 mps 738 mmHg 90%
    21:00 +14°C° 0 mm 2 mps 738 mmHg 92%
    22:00 +13°C° 0 mm 2 mps 738 mmHg 94%
    23:00 +12°C° 0 mm 2 mps 739 mmHg 94%
    Show more